Location: Smoky Mountain Stargaze
(35.4252°N, 83.3329°W)
Time: 09:52:59
(UTC-04:00)

Amateur Radio Satellites - All Passes

Search period start: 04 August 2015 09:22
Search period end: 05 August 2015 09:22
Location: Smoky Mountain Stargaze, 35.4252°N, 83.3329°W

Satellite Date Start Highest point End Downlink Frequencies (MHz)
Time Altitude Azimuth
COMPASS 1 04 Aug 09:23:39 09:25:31 13° 91° (E) 09:27:35 437.405
AIST 2 04 Aug 09:30:51 09:34:44 36° 55° (NE) 09:38:34 435.215
GOMX 1 04 Aug 09:34:40 09:39:21 73° 102° (ESE) 09:44:22 467.674
M-CUBED/EXP-1 PRIME 04 Aug 09:38:21 09:41:54 29° 66° (ENE) 09:45:46 437.505
BRITE-PL 04 Aug 09:41:31 09:45:58 55° 284° (WNW) 09:50:44 437.365/2234.400
SEEDS 04 Aug 09:42:55 09:46:38 29° 96° (E) 09:50:22 437.485
BEESAT 3 04 Aug 09:48:27 09:51:24 19° 249° (WSW) 09:54:11 437.485
CUTE 1.7 + AOD 2 04 Aug 09:51:05 09:55:15 48° 99° (E) 09:59:23 437.475
CANX-2 04 Aug 09:59:56 10:04:14 71° 101° (E) 10:08:29 2200.000
AAUSAT CUBESAT 2 04 Aug 10:00:30 10:04:12 31° 96° (E) 10:07:56 437.432
AUBIESAT-1 04 Aug 10:03:50 10:07:47 49° 69° (ENE) 10:12:05 437.475
Oscar 11 04 Aug 10:09:24 10:12:09 17° 92° (E) 10:15:02 145.826/435.025
UWE-3 04 Aug 10:14:07 10:17:04 17° 92° (E) 10:20:12 435.000/436.395/437.385
UNISAT 6 04 Aug 10:14:24 10:16:30 14° 67° (ENE) 10:18:50 437.425
SO-50 04 Aug 10:16:42 10:20:49 28° 309° (NW) 10:24:59 436.795
CINEMA 3 04 Aug 10:27:59 10:32:46 72° 100° (E) 10:37:44 145.822/145.860
HO-68 04 Aug 10:35:52 10:43:03 74° 287° (WNW) 10:50:12 435.675
CUBEBUG 2 04 Aug 10:35:53 10:40:16 39° 98° (E) 10:44:44 437.445
DOVE 4 04 Aug 10:44:30 10:48:48 34° 287° (WNW) 10:53:15 437.250
PCSat 04 Aug 10:47:54 10:51:23 17° 312° (NW) 10:54:41 145.827
TIGRISAT 04 Aug 10:54:09 10:58:07 36° 72° (ENE) 11:02:14 435.000
DELFI C3 04 Aug 10:57:02 11:00:50 39° 98° (E) 11:04:38 145.870
ANTELSAT 04 Aug 10:57:22 11:01:27 42° 73° (ENE) 11:05:41 437.575/2403.000
COMPASS 1 04 Aug 10:57:26 11:01:26 42° 286° (WNW) 11:05:22 437.405
POLYITAN 1 04 Aug 11:04:20 11:07:06 18° 69° (ENE) 11:10:01 437.675
BUGSAT 1 04 Aug 11:07:38 11:08:01 10° 67° (ENE) 11:08:39 437.445
AIST 2 04 Aug 11:10:19 11:13:01 16° 249° (WSW) 11:15:33 435.215
YUBILEINY 04 Aug 11:12:53 11:20:21 31° 71° (ENE) 11:28:02 435.215
M-CUBED/EXP-1 PRIME 04 Aug 11:13:38 11:16:45 20° 263° (W) 11:19:56 437.505
GOMX 1 04 Aug 11:16:01 11:17:06 10° 292° (WNW) 11:17:53 467.674
ZACube-1 04 Aug 11:17:18 11:21:52 67° 101° (E) 11:26:26 437.345
SEEDS 04 Aug 11:19:08 11:22:14 19° 290° (WNW) 11:25:12 437.485
POPSAT HIP 1 04 Aug 11:19:11 11:22:38 26° 71° (ENE) 11:26:08 437.405
QB50P2 04 Aug 11:27:26 11:31:12 33° 72° (ENE) 11:35:01 145.880/145.840
CUTE 1.7 + AOD 2 04 Aug 11:28:46 11:30:46 13° 292° (WNW) 11:32:34 437.475
HUMSAT D 04 Aug 11:35:09 11:39:14 40° 98° (E) 11:43:19 437.325/437.525
AAUSAT CUBESAT 2 04 Aug 11:36:40 11:39:36 18° 290° (WNW) 11:42:23 437.432
FUNcube-1 04 Aug 11:37:22 11:41:56 74° 283° (WNW) 11:46:30 145.935
ESTCUBE 1 04 Aug 11:39:53 11:40:38 11° 89° (E) 11:41:43 437.505/2401.250
AUBIESAT-1 04 Aug 11:41:13 11:42:56 12° 267° (W) 11:44:27 437.475
Oscar 11 04 Aug 11:44:29 11:48:28 35° 287° (WNW) 11:52:23 145.826/435.025
Cosmos 2491 04 Aug 11:45:09 11:51:55 27° 85° (E) 11:58:59 435.465 / 435.565
UKube-1 04 Aug 11:46:12 11:50:00 30° 97° (E) 11:53:48 .
DUCHIFAT 1 04 Aug 11:47:30 11:51:35 55° 75° (ENE) 11:55:40 145.980
UNISAT 6 04 Aug 11:48:41 11:52:53 47° 261° (W) 11:57:12 437.425
UWE-3 04 Aug 11:49:24 11:53:46 40° 286° (WNW) 11:58:07 435.000/436.395/437.385
NANOSAT C BR1 04 Aug 11:53:14 11:57:23 67° 76° (ENE) 12:01:33 145.865
QB50P1 04 Aug 11:53:30 11:57:39 69° 76° (ENE) 12:01:50 145.935-145.965
O/OREOS (USA 219) 04 Aug 11:57:36 12:02:13 88° 251° (WSW) 12:06:48 437.305
50 SAT 04 Aug 12:01:55 12:05:33 34° 97° (E) 12:09:12 437.505
CINEMA 3 04 Aug 12:07:59 12:09:30 11° 293° (WNW) 12:10:44 145.822/145.860
AISAT 04 Aug 12:09:44 12:13:50 37° 98° (E) 12:17:58 437.250
CUBEBUG 1 04 Aug 12:13:11 12:16:31 22° 95° (E) 12:19:56 437.445
CUBEBUG 2 04 Aug 12:13:22 12:16:42 19° 291° (WNW) 12:19:55 437.445
DX 1 04 Aug 12:19:29 12:23:50 85° 103° (ESE) 12:28:11 434.975-435.025
HO-68 04 Aug 12:26:58 12:29:46 12° 303° (WNW) 12:32:04 435.675
TIGRISAT 04 Aug 12:32:14 12:35:04 16° 269° (W) 12:37:45 435.000
DELFI C3 04 Aug 12:33:29 12:35:35 14° 291° (WNW) 12:37:30 145.870
ANTELSAT 04 Aug 12:36:01 12:38:30 14° 269° (W) 12:40:49 437.575/2403.000
SPROUT 04 Aug 12:37:13 12:38:10 11° 90° (E) 12:39:24 437.525
POLYITAN 1 04 Aug 12:39:01 12:42:48 31° 263° (W) 12:46:33 437.675
BUGSAT 1 04 Aug 12:39:08 12:43:05 53° 260° (W) 12:47:01 437.445
AIST 1 04 Aug 12:43:58 12:48:18 73° 278° (W) 12:52:37
VELOX 1 04 Aug 12:47:25 12:51:50 80° 284° (WNW) 12:56:15 145.980
POPSAT HIP 1 04 Aug 12:55:13 12:58:29 21° 266° (W) 13:01:39 437.405
ZACube-1 04 Aug 12:56:28 12:57:43 11° 294° (WNW) 12:58:42 437.345
QB50P2 04 Aug 13:04:28 13:07:13 16° 267° (W) 13:09:48 145.880/145.840
YUBILEINY 04 Aug 13:09:05 13:17:33 51° 270° (W) 13:25:55 435.215
HUMSAT D 04 Aug 13:12:01 13:14:39 16° 291° (WNW) 13:17:08 437.325/437.525
ESTCUBE 1 04 Aug 13:13:32 13:17:58 58° 285° (WNW) 13:22:20 437.505/2401.250
UKube-1 04 Aug 13:22:44 13:25:57 20° 291° (WNW) 13:29:02 .
50 SAT 04 Aug 13:37:32 13:39:51 15° 291° (WNW) 13:42:00 437.505
Cosmos 2491 04 Aug 13:39:44 13:48:20 57° 282° (WNW) 13:56:52 435.465 / 435.565
Gurwin Techsat 1B 04 Aug 13:43:29 13:44:53 11° 64° (ENE) 13:46:39 435.225
Cosmos 2504 04 Aug 13:47:06 13:54:49 38° 75° (ENE) 14:02:45 435.465 / 435.565
AISAT 04 Aug 13:47:13 13:50:09 17° 291° (WNW) 13:52:56 437.250
CUBEBUG 1 04 Aug 13:49:10 13:52:51 27° 288° (WNW) 13:56:27 437.445
Oscar 19 04 Aug 13:50:35 13:55:27 47° 73° (ENE) 14:00:22 437.125/150
TISAT 1 04 Aug 14:07:31 14:11:44 82° 102° (ESE) 14:15:59 437.305
SPROUT 04 Aug 14:10:25 14:14:36 52° 285° (WNW) 14:18:48 437.525
BEESAT 04 Aug 14:50:26 14:54:46 35° 97° (E) 14:59:07 436.000
CUSAT 1 04 Aug 14:56:07 15:00:08 26° 78° (ENE) 15:05:15 437.405
DANDE 04 Aug 15:03:19 15:06:16 18° 77° (ENE) 15:09:57 436.750
JAS-2 04 Aug 15:10:43 15:16:06 33° 66° (ENE) 15:22:13 435.910
SWISSCUBE 04 Aug 15:11:17 15:16:02 66° 101° (E) 15:20:44 437.505
Gurwin Techsat 1B 04 Aug 15:18:57 15:24:15 82° 256° (WSW) 15:29:37 435.225
ITAMSAT 1 04 Aug 15:19:24 15:24:38 90° 8° (N) 15:29:53 435.822/435.867
Oscar 19 04 Aug 15:31:42 15:35:06 17° 268° (W) 15:38:18 437.125/150
ITUPSAT 1 04 Aug 15:34:07 15:38:55 79° 284° (WNW) 15:43:40 437.325
Cosmos 2504 04 Aug 15:39:11 15:47:05 42° 271° (W) 15:54:55 435.465 / 435.565
STARS 04 Aug 15:45:14 15:46:19 11° 90° (E) 15:47:42 437.465
AO-7 04 Aug 15:54:29 16:02:14 46° 66° (ENE) 16:10:07 29.400- 29.500
GONETS M04 04 Aug 15:58:33 16:00:32 11° 59° (ENE) 16:03:21
KKS-1 04 Aug 16:18:50 16:23:11 50° 100° (E) 16:27:32 437.445
HORYU 2 04 Aug 16:20:46 16:25:01 46° 73° (ENE) 16:29:19 437.375
BEESAT 04 Aug 16:28:48 16:32:25 21° 291° (WNW) 16:35:53 436.000
CUSAT 1 04 Aug 16:38:13 16:42:37 32° 264° (W) 16:48:04 437.405
DANDE 04 Aug 16:45:07 16:49:16 39° 263° (W) 16:54:39 436.750
SWISSCUBE 04 Aug 16:51:35 16:53:23 12° 295° (WNW) 16:54:54 437.505
JAS-2 04 Aug 16:55:26 17:01:04 37° 266° (W) 17:07:19 435.910
SO-50 04 Aug 17:11:11 17:14:07 16° 44° (NE) 17:17:11 436.795
VERMONT LUNAR 04 Aug 17:17:10 17:20:18 63° 153° (SSE) 17:23:27 437.305
STARS 04 Aug 17:18:49 17:23:09 55° 285° (WNW) 17:27:29 437.465
MOZHAYETS 4 04 Aug 17:36:53 17:41:15 42° 98° (E) 17:45:37
AO-7 04 Aug 17:47:35 17:55:10 36° 263° (W) 18:02:38 29.400- 29.500
GONETS M04 04 Aug 17:50:39 17:59:22 71° 81° (E) 18:08:07
PCSat 04 Aug 17:53:22 17:58:01 29° 54° (NE) 18:02:44 145.827
KKS-1 04 Aug 17:57:10 17:59:26 13° 293° (WNW) 18:01:28 437.445
HORYU 2 04 Aug 17:59:41 18:01:57 13° 269° (W) 18:03:59 437.375
Cubesat XI-IV 04 Aug 18:01:17 18:05:01 20° 67° (ENE) 18:08:56 437.490
PHONESAT 2.4 04 Aug 18:33:37 18:36:46 32° 149° (SSE) 18:39:57 2401.200-2431.200
Cosmos 2499 04 Aug 18:48:08 18:56:20 42° 75° (ENE) 19:04:37 435.465 / 435.565
SO-50 04 Aug 18:50:18 18:55:13 66° 243° (WSW) 18:59:58 436.795
VERMONT LUNAR 04 Aug 18:54:08 18:57:07 36° 350° (N) 19:00:06 437.305
CUTE-I 04 Aug 18:54:12 18:59:29 65° 75° (ENE) 19:04:49 437.470
MOZHAYETS 4 04 Aug 19:15:13 19:18:10 16° 292° (WNW) 19:20:55
ISS 04 Aug 19:28:58 19:31:40 25° 131° (SE) 19:34:25 145.825
PCSat 04 Aug 19:36:36 19:41:29 34° 250° (WSW) 19:46:17 145.827
Cubesat XI-IV 04 Aug 19:39:40 19:44:49 46° 261° (W) 19:49:58 437.490
CUBESAT XI-V 04 Aug 19:41:32 19:46:08 79° 100° (E) 19:50:44 437.345
GONETS M04 04 Aug 19:49:19 19:55:29 21° 277° (W) 20:01:12
STRAND 1 04 Aug 20:07:53 20:12:38 39° 98° (E) 20:17:23 437.568
PHONESAT 2.4 04 Aug 20:11:11 20:14:38 56° 343° (NNW) 20:18:06 2401.200-2431.200
DOVE 4 04 Aug 20:12:09 20:13:59 13° 68° (ENE) 20:16:03 437.250
VERMONT LUNAR 04 Aug 20:31:17 20:34:13 33° 7° (N) 20:37:09 437.305
SEEDS 04 Aug 20:33:08 20:35:30 15° 69° (ENE) 20:38:03 437.485
CUTE-I 04 Aug 20:37:27 20:40:06 13° 270° (W) 20:42:24 437.470
GOMX 1 04 Aug 20:40:37 20:44:41 51° 76° (ENE) 20:48:44 467.674
PRISM 04 Aug 20:41:19 20:45:25 77° 101° (ESE) 20:49:29 437.425
Cosmos 2499 04 Aug 20:41:22 20:49:27 40° 272° (W) 20:57:19 435.465 / 435.565
CUTE 1.7 + AOD 2 04 Aug 20:41:23 20:44:45 24° 71° (ENE) 20:48:14 437.475
AAUSAT CUBESAT 2 04 Aug 20:49:24 20:51:45 15° 69° (ENE) 20:54:16 437.432
CANX-2 04 Aug 20:49:55 20:53:43 33° 73° (ENE) 20:57:37 2200.000
BRITE-PL 04 Aug 20:49:56 20:54:16 64° 259° (W) 20:58:25 437.365/2234.400
HO-68 04 Aug 21:00:36 21:07:35 62° 71° (ENE) 21:14:39 435.675
ISS 04 Aug 21:05:14 21:08:03 26° 326° (NW) 21:10:52 145.825
RS-15 04 Aug 21:19:47 21:30:23 63° 113° (ESE) 21:41:21 29.354- 29.394
CINEMA 3 04 Aug 21:27:18 21:31:12 41° 73° (ENE) 21:35:13 145.822/145.860
CUBEBUG 2 04 Aug 21:32:07 21:35:14 21° 70° (ENE) 21:38:30 437.445
DELFI C3 04 Aug 21:42:07 21:44:41 17° 70° (ENE) 21:47:24 145.870
COMPASS 1 04 Aug 21:44:54 21:49:07 85° 78° (ENE) 21:53:22 437.405
DOVE 4 04 Aug 21:47:31 21:51:28 41° 262° (W) 21:55:23 437.250
STRAND 1 04 Aug 21:47:45 21:51:36 21° 292° (WNW) 21:55:18 437.568
PHONESAT 2.4 04 Aug 21:49:43 21:52:57 34° 0° (N) 21:56:13 2401.200-2431.200
BEESAT 3 04 Aug 22:02:13 22:03:12 11° 109° (ESE) 22:04:27 437.485
SEEDS 04 Aug 22:06:59 22:10:58 39° 262° (W) 22:14:59 437.485
VERMONT LUNAR 04 Aug 22:07:57 22:11:08 87° 204° (SSW) 22:14:17 437.305
ZACube-1 04 Aug 22:10:34 22:14:21 34° 73° (ENE) 22:18:16 437.345
CUTE 1.7 + AOD 2 04 Aug 22:17:03 22:20:35 24° 265° (W) 22:24:04 437.475
AAUSAT CUBESAT 2 04 Aug 22:23:07 22:27:03 38° 262° (W) 22:30:59 437.432
HUMSAT D 04 Aug 22:24:44 22:27:38 19° 70° (ENE) 22:30:41 437.325/437.525
CANX-2 04 Aug 22:26:51 22:29:46 17° 268° (W) 22:32:32 2200.000
FUNcube-1 04 Aug 22:30:00 22:34:07 57° 75° (ENE) 22:38:21 145.935
Oscar 11 04 Aug 22:35:33 22:39:52 68° 260° (W) 22:44:13 145.826/435.025
UKube-1 04 Aug 22:38:52 22:41:45 18° 69° (ENE) 22:44:46 .
UWE-3 04 Aug 22:43:14 22:47:24 70° 259° (W) 22:51:43 435.000/436.395/437.385
50 SAT 04 Aug 22:44:16 22:46:04 13° 69° (ENE) 22:48:04 437.505
HO-68 04 Aug 22:50:32 22:55:52 21° 268° (W) 23:00:53 435.675
TIGRISAT 04 Aug 22:51:29 22:52:14 10° 89° (E) 22:53:20 435.000
ANTELSAT 04 Aug 22:54:10 22:55:56 12° 90° (E) 22:57:59 437.575/2403.000
AIST 1 04 Aug 22:55:07 22:58:09 19° 74° (ENE) 23:01:17
M-CUBED/EXP-1 PRIME 04 Aug 22:56:20 23:00:49 41° 102° (ESE) 23:05:06 437.505
BEESAT 2 04 Aug 23:03:00 23:06:53 45° 115° (ESE) 23:10:51 435.950
AISAT 04 Aug 23:05:01 23:08:28 24° 70° (ENE) 23:12:01 437.250
CINEMA 3 04 Aug 23:06:49 23:08:44 12° 270° (W) 23:10:25 145.822/145.860
CUBEBUG 1 04 Aug 23:07:47 23:09:47 13° 68° (ENE) 23:12:01 437.445
CUBEBUG 2 04 Aug 23:08:13 23:11:48 27° 265° (W) 23:15:24 437.445
DX 1 04 Aug 23:11:58 23:16:08 48° 74° (ENE) 23:20:20 434.975-435.025
DELFI C3 04 Aug 23:15:53 23:19:32 31° 263° (W) 23:23:10 145.870
AUBIESAT-1 04 Aug 23:21:31 23:26:12 67° 105° (ESE) 23:30:39 437.475
AIST 2 04 Aug 23:26:58 23:29:36 17° 111° (ESE) 23:32:23 435.215
PHONESAT 2.4 04 Aug 23:27:48 23:31:16 58° 17° (NNE) 23:34:44 2401.200-2431.200
RS-15 04 Aug 23:33:31 23:43:29 37° 316° (NW) 23:53:37 29.354- 29.394
BEESAT 3 04 Aug 23:36:46 23:40:44 52° 302° (WNW) 23:44:44 437.485
DUCHIFAT 1 04 Aug 23:37:29 23:38:38 11° 90° (E) 23:40:05 145.980
VELOX 1 04 Aug 23:41:45 23:46:05 61° 76° (ENE) 23:50:26 145.980
NANOSAT C BR1 04 Aug 23:42:40 23:44:45 14° 91° (E) 23:47:04 145.865
QB50P1 04 Aug 23:43:04 23:45:17 14° 92° (E) 23:47:42 145.935-145.965
UNISAT 6 04 Aug 23:43:20 23:47:50 45° 98° (E) 23:52:21 437.425
VERMONT LUNAR 04 Aug 23:45:43 23:47:31 14° 216° (SW) 23:49:15 437.305
ZACube-1 04 Aug 23:48:07 23:50:52 16° 268° (W) 23:53:29 437.345
Cosmos 2491 04 Aug 23:53:39 00:02:16 64° 80° (E) 00:10:55 435.465 / 435.565
HUMSAT D 04 Aug 23:59:33 00:03:11 29° 264° (W) 00:06:50 437.325/437.525
ESTCUBE 1 05 Aug 00:09:42 00:14:15 88° 77° (ENE) 00:18:48 437.505/2401.250
YUBILEINY 05 Aug 00:09:53 00:17:38 39° 88° (E) 00:25:35 435.215
UKube-1 05 Aug 00:13:44 00:17:40 33° 263° (W) 00:21:33 .
50 SAT 05 Aug 00:16:42 00:20:19 37° 262° (W) 00:23:59 437.505
BUGSAT 1 05 Aug 00:24:29 00:27:53 26° 96° (E) 00:31:23 437.445
TIGRISAT 05 Aug 00:24:48 00:29:29 65° 284° (WNW) 00:34:08 435.000
POLYITAN 1 05 Aug 00:26:48 00:30:58 49° 99° (E) 00:35:10 437.675
ANTELSAT 05 Aug 00:28:29 00:33:07 57° 285° (WNW) 00:37:43 437.575/2403.000
O/OREOS (USA 219) 05 Aug 00:29:40 00:32:07 15° 101° (E) 00:34:47 437.305
M-CUBED/EXP-1 PRIME 05 Aug 00:31:47 00:35:16 20° 297° (WNW) 00:38:30 437.505
AIST 1 05 Aug 00:32:12 00:35:49 27° 269° (W) 00:39:21
AISAT 05 Aug 00:41:15 00:44:58 26° 265° (W) 00:48:36 437.250
CUBEBUG 1 05 Aug 00:41:36 00:45:48 46° 261° (W) 00:49:59 437.445
POPSAT HIP 1 05 Aug 00:42:03 00:46:20 76° 102° (ESE) 00:50:37 437.405
BEESAT 2 05 Aug 00:42:37 00:45:12 16° 312° (NW) 00:47:40 435.950
QB50P2 05 Aug 00:50:50 00:55:07 81° 284° (WNW) 00:59:24 145.880/145.840
DX 1 05 Aug 00:50:55 00:52:43 12° 269° (W) 00:54:16 434.975-435.025
TISAT 1 05 Aug 00:56:38 01:00:30 39° 73° (ENE) 01:04:25 437.305
AUBIESAT-1 05 Aug 00:58:16 01:00:20 12° 300° (WNW) 01:02:08 437.475
SPROUT 05 Aug 01:01:07 01:05:22 78° 77° (ENE) 01:09:39 437.525
AIST 2 05 Aug 01:03:54 01:07:54 38° 304° (NW) 01:11:54 435.215
PHONESAT 2.4 05 Aug 01:05:59 01:09:07 30° 212° (SSW) 01:12:13 2401.200-2431.200
DUCHIFAT 1 05 Aug 01:10:39 01:14:47 50° 285° (WNW) 01:18:54 145.980
NANOSAT C BR1 05 Aug 01:16:48 01:20:48 41° 287° (WNW) 01:24:48 145.865
QB50P1 05 Aug 01:17:21 01:21:21 39° 286° (WNW) 01:25:19 145.935-145.965
UNISAT 6 05 Aug 01:21:15 01:24:17 17° 292° (WNW) 01:27:07 437.425
JUGNU 05 Aug 01:46:58 01:48:49 11° 167° (SSE) 01:50:46 437.505
Cosmos 2491 05 Aug 01:51:56 01:58:32 23° 276° (W) 02:04:44 435.465 / 435.565
BEESAT 05 Aug 01:54:08 01:58:11 29° 71° (ENE) 02:02:21 436.000
RS-15 05 Aug 01:55:24 02:00:49 14° 349° (NNW) 02:06:03 29.354- 29.394
ISS 05 Aug 01:59:36 02:01:06 13° 25° (NNE) 02:02:40 145.825
BUGSAT 1 05 Aug 02:00:07 02:03:15 21° 289° (WNW) 02:06:17 437.445
POLYITAN 1 05 Aug 02:04:34 02:06:30 12° 292° (WNW) 02:08:12 437.675
Oscar 19 05 Aug 02:05:53 02:09:43 21° 93° (E) 02:13:43 437.125/150
YUBILEINY 05 Aug 02:06:22 02:14:27 40° 286° (WNW) 02:22:28 435.215
O/OREOS (USA 219) 05 Aug 02:06:59 02:11:14 40° 295° (WNW) 02:15:29 437.305
SWISSCUBE 05 Aug 02:14:42 02:19:20 53° 74° (ENE) 02:24:02 437.505
Cosmos 2504 05 Aug 02:15:12 02:20:48 26° 85° (E) 02:26:57 435.465 / 435.565
TISAT 1 05 Aug 02:34:13 02:36:29 14° 268° (W) 02:38:32 437.305
ITUPSAT 1 05 Aug 02:37:37 02:42:26 84° 78° (ENE) 02:47:17 437.325
KKS-1 05 Aug 03:14:14 03:18:07 31° 71° (ENE) 03:22:03 437.445
BEESAT 05 Aug 03:32:03 03:36:01 25° 265° (W) 03:39:55 436.000
JUGNU 05 Aug 03:33:24 03:37:07 17° 176° (S) 03:40:51 437.505
ISS 05 Aug 03:34:42 03:37:58 89° 165° (SSE) 03:41:13 145.825
ITAMSAT 1 05 Aug 03:35:37 03:40:28 41° 98° (E) 03:45:20 435.822/435.867
Gurwin Techsat 1B 05 Aug 03:38:23 03:43:33 51° 99° (E) 03:48:43 435.225
Oscar 19 05 Aug 03:44:25 03:49:13 39° 289° (WNW) 03:53:59 437.125/150
SRMSAT 05 Aug 03:46:36 03:48:48 12° 168° (SSE) 03:51:05 437.500
SWISSCUBE 05 Aug 03:55:06 03:57:34 13° 269° (W) 03:59:46 437.505
AO-7 05 Aug 04:01:40 04:05:56 16° 89° (E) 04:10:50 29.400- 29.500
CUSAT 1 05 Aug 04:03:09 04:05:04 17° 96° (E) 04:06:58 437.405
Cosmos 2504 05 Aug 04:05:43 04:12:36 48° 283° (WNW) 04:19:56 435.465 / 435.565
JAS-2 05 Aug 04:07:07 04:14:30 43° 96° (E) 04:21:37 435.910
STARS 05 Aug 04:12:19 04:16:40 87° 77° (ENE) 04:21:04 437.465
RS-15 05 Aug 04:12:35 04:19:56 19° 25° (NNE) 04:27:54 29.354- 29.394
DANDE 05 Aug 04:14:20 04:16:08 15° 97° (E) 04:17:53 436.750
HORYU 2 05 Aug 04:17:18 04:18:38 11° 90° (E) 04:20:16 437.375
MOZHAYETS 4 05 Aug 04:35:59 04:39:55 29° 72° (ENE) 04:43:57
KKS-1 05 Aug 04:51:33 04:54:49 19° 266° (W) 04:57:58 437.445
GONETS M04 05 Aug 04:56:27 05:00:15 14° 81° (E) 05:04:45
ITAMSAT 1 05 Aug 05:15:51 05:19:44 21° 293° (WNW) 05:23:27 435.822/435.867
Gurwin Techsat 1B 05 Aug 05:19:36 05:23:10 18° 294° (WNW) 05:26:31 435.225
JUGNU 05 Aug 05:21:55 05:25:26 16° 187° (S) 05:28:54 437.505
SRMSAT 05 Aug 05:33:32 05:37:14 17° 177° (S) 05:40:58 437.500
HORYU 2 05 Aug 05:51:15 05:55:41 55° 286° (WNW) 06:00:04 437.375
AO-7 05 Aug 05:51:30 05:59:53 88° 287° (WNW) 06:08:11 29.400- 29.500
JAS-2 05 Aug 05:52:15 05:59:21 37° 292° (WNW) 06:06:06 435.910
MOZHAYETS 4 05 Aug 06:13:22 06:17:08 24° 266° (W) 06:20:49
RS-15 05 Aug 06:24:19 06:35:53 58° 53° (NE) 06:47:54 29.354- 29.394
CUBESAT XI-V 05 Aug 06:41:40 06:46:12 53° 75° (ENE) 06:50:45 437.345
GONETS M04 05 Aug 06:47:21 06:56:05 89° 91° (E) 07:04:49
CUTE-I 05 Aug 07:14:49 07:19:31 32° 96° (E) 07:24:17 437.470
STRAND 1 05 Aug 07:20:42 07:25:30 42° 72° (ENE) 07:30:20 437.568
Cosmos 2499 05 Aug 07:21:45 07:28:04 32° 86° (E) 07:34:58 435.465 / 435.565
SRMSAT 05 Aug 07:22:21 07:25:42 15° 187° (S) 07:28:59 437.500
BEESAT 2 05 Aug 07:26:19 07:28:05 13° 46° (NE) 07:29:58 435.950
PRISM 05 Aug 07:28:17 07:32:05 36° 73° (ENE) 07:35:56 437.425
AO-7 05 Aug 07:46:25 07:51:42 18° 304° (NW) 07:56:34 29.400- 29.500
BEESAT 3 05 Aug 07:58:09 08:01:48 33° 55° (NE) 08:05:27 437.485
Cubesat XI-IV 05 Aug 07:59:48 08:05:09 89° 292° (WNW) 08:10:28 437.490
CUBESAT XI-V 05 Aug 08:21:49 08:24:01 13° 270° (W) 08:25:55 437.345
PCSat 05 Aug 08:31:32 08:36:41 47° 112° (ESE) 08:41:53 145.827
HO-68 05 Aug 08:35:10 08:37:20 12° 87° (E) 08:40:07 435.675
RS-15 05 Aug 08:37:18 08:48:07 40° 252° (WSW) 08:58:55 29.354- 29.394
GOMX 1 05 Aug 08:45:01 08:48:34 21° 94° (E) 08:52:25 467.674
GONETS M04 05 Aug 08:49:04 08:54:19 16° 297° (WNW) 08:59:00
CUTE-I 05 Aug 08:55:03 08:59:30 27° 291° (WNW) 09:03:50 437.470
BRITE-PL 05 Aug 08:56:33 09:00:59 47° 99° (E) 09:05:46 437.365/2234.400
STRAND 1 05 Aug 09:01:10 09:04:55 20° 267° (W) 09:08:29 437.568
SO-50 05 Aug 09:01:14 09:05:57 84° 121° (ESE) 09:10:51 436.795
BEESAT 2 05 Aug 09:02:32 09:06:32 57° 244° (WSW) 09:10:26 435.950
PRISM 05 Aug 09:05:07 09:07:40 15° 267° (W) 09:10:04 437.425
